Wind_Speed
70 68 68 70 71 70 74 67 69 71 69 68 64 65 62 60 59 63 62 59 58 57 56 56 57 59 57 60 57 53 55 56 53 53 53 54 51 49 50 52 51 51 50 48 50
77 71 70 73 74 75 76 72 69 73 75 73 69 67 66 63 60 63 64 66 65 61 63 62 66 62 61 61 59 59 60 56 55 54 54 55 53 54 51 50 49 51 48 50 50
79 80 76 75 78 76 77 76 72 73 77 76 73 71 70 68 68 68 66 68 67 65 64 65 64 67 62 62 61 58 58 57 56 56 57 56 57 53 52 50 49 51 51 52 52
84 82 85 84 84 82 74 74 73 76 79 79 76 78 74 69 69 65 65 65 67 67 66 65 64 61 60 60 59 59 58 58 55 55 57 54 53 54 51 46 50 51 52 51 53
78 78 76 76 81 80 79 77 78 74 80 73 72 72 72 70 72 71 66 61 60 62 64 62 58 57 58 57 59 58 57 56 55 53 53 53 52 53 48 48 51 51 52 56 53
81 80 79 78 70 74 74 74 76 73 72 69 68 73 72 69 68 68 64 60 57 57 59 59 57 57 56 56 52 53 54 55 54 54 54 54 53 52 53 51 49 49 50 51 51
79 81 79 77 74 72 73 71 72 73 73 73 66 65 64 63 65 62 59 58 57 59 57 59 58 56 56 56 54 53 55 54 55 56 57 60 56 56 56 54 53 53 54 54 54
79 81 78 80 78 75 75 70 68 69 68 66 67 65 68 64 64 62 59 56 56 56 58 57 57 59 58 57 58 57 58 58 59 59 60 60 57 58 57 58 58 58 60 61 60
82 84 83 85 81 83 84 78 70 70 73 71 68 64 66 61 63 61 60 62 57 56 57 58 60 61 61 61 64 65 61 62 61 62 60 59 60 59 60 61 62 63 65 65 66
84 87 86 84 83 84 82 77 75 75 74 75 73 67 69 66 63 64 63 64 64 63 61 62 65 67 66 65 64 63 62 63 65 64 61 62 64 62 62 62 64 64 66 68 70
90 85 87 85 83 86 87 81 78 76 74 72 71 69 65 63 62 64 65 67 65 63 63 66 66 67 64 63 62 63 61 63 66 67 63 64 64 65 66 67 68 70 73 75 76
89 90 92 91 91 91 87 85 82 78 71 71 72 67 66 63 62 67 67 63 63 64 64 63 64 63 60 60 63 63 65 66 63 65 63 64 65 69 73 76 79 81 84 86 86
99 98 96 92 90 94 88 87 85 81 71 68 72 67 68 66 63 68 68 65 63 64 64 61 63 64 63 64 64 62 64 67 68 72 74 74 74 77 80 84 85 86 88 90 90
105 104 95 97 90 94 97 93 87 86 75 65 72 66 71 70 65 74 69 68 65 67 70 68 68 68 69 68 68 68 71 73 75 77 78 79 77 80 84 89 92 95 95 97 98
111 109 106 99 97 93 103 99 95 89 84 75 70 71 74 77 70 74 78 74 70 71 72 73 72 75 75 75 75 74 75 76 78 80 80 80 84 77 83 88 93 96 98 100 102
118 115 109 104 100 100 102 102 95 97 81 79 76 80 78 81 79 81 84 82 78 74 73 77 78 78 81 82 83 82 82 83 83 85 81 84 86 80 88 94 99 101 103 106 107
124 123 117 109 108 110 102 106 103 94 86 82 85 85 88 84 86 84 87 87 81 79 77 80 80 82 85 84 88 90 91 93 93 92 90 91 94 91 95 100 104 109 112 113 111
130 124 121 115 111 114 113 109 110 94 92 91 90 92 92 93 93 88 87 91 90 87 86 86 85 87 88 88 90 91 92 95 97 96 96 97 97 100 104 109 111 116 117 116 113
133 127 123 120 119 117 121 119 107 101 98 99 97 96 98 101 95 95 89 91 95 91 91 92 92 91 93 94 95 96 97 100 104 103 105 102 105 108 111 112 115 115 115 111 105
138 136 131 129 129 127 129 126 108 104 106 107 106 106 103 104 106 104 102 95 97 98 96 96 98 98 97 97 100 103 103 105 109 109 111 110 114 114 116 114 114 111 107 100 96
142 139 133 133 133 131 131 125 120 112 114 112 111 111 107 103 102 104 104 100 101 103 103 104 103 100 100 101 104 103 105 108 109 109 115 118 112 119 117 112 109 102 94 93 90
146 140 134 136 138 137 132 124 122 119 116 114 113 113 109 109 108 107 104 102 104 106 107 110 109 105 104 104 105 109 107 109 114 117 121 127 115 117 108 105 100 93 89 84 77
145 142 139 138 143 138 132 128 127 122 118 117 115 113 113 113 112 110 108 107 109 110 111 113 110 108 107 108 110 111 112 115 119 122 123 127 119 118 106 100 91 86 78 71 65
143 140 141 142 141 137 135 133 131 125 123 122 119 117 116 115 115 114 112 113 114 115 115 115 112 109 109 110 111 113 116 121 123 123 128 123 117 110 107 96 84 72 65 62 61
126 126 127 134 130 128 133 134 135 130 127 127 124 122 121 120 119 119 118 118 117 117 116 116 114 112 112 114 115 117 119 123 125 128 128 115 111 102 90 79 70 61 58 56 49
114 115 113 116 119 119 123 126 129 131 128 128 127 125 125 125 125 125 124 122 119 117 115 116 117 115 116 118 120 119 121 126 126 117 108 101 86 81 71 64 58 54 50 46 41
99 106 104 102 106 111 108 109 122 129 132 130 131 130 129 129 129 128 125 123 120 116 117 118 119 119 120 121 123 120 123 126 109 100 92 80 67 64 59 54 50 44 40 38 36
Wind_Direction
264 261 263 269 270 270 271 273 270 270 271 273 274 276 277 276 280 278 275 276 281 282 283 286 291 289 286 286 284 284 286 286 286 285 283 284 281 282 282 283 282 284 283 279 278
262 262 263 263 265 270 267 270 270 270 272 272 272 275 275 275 278 278 278 276 276 278 279 282 288 290 286 284 284 284 288 284 284 279 281 279 279 280 280 280 280 283 276 273 272
262 263 264 262 265 268 269 266 269 269 271 272 270 272 274 275 279 279 281 277 276 277 281 283 284 286 284 283 285 286 285 282 282 282 279 279 282 281 281 280 282 273 272 272 273
261 263 267 267 268 268 268 270 272 274 271 272 273 271 274 275 278 282 283 278 276 279 282 281 280 281 279 281 283 284 282 282 283 283 282 279 281 281 282 282 276 277 277 276 277
266 266 269 272 269 266 267 270 269 272 270 272 271 272 271 274 276 282 280 279 278 279 278 279 278 279 279 281 283 284 285 284 285 282 280 282 284 284 282 282 280 277 274 274 273
265 268 268 270 270 269 268 271 273 272 270 274 272 272 273 273 277 280 278 277 276 276 275 275 278 280 280 279 283 285 286 285 284 284 284 285 285 284 282 279 278 278 278 279 279
266 269 269 275 273 270 267 271 272 270 273 270 272 274 272 273 276 277 276 274 275 276 277 279 279 277 278 279 281 284 286 286 284 286 287 288 288 285 285 282 283 282 282 281 280
266 266 267 272 272 272 273 271 273 273 272 272 273 272 272 276 277 275 279 277 277 278 279 279 280 279 280 282 285 285 285 285 286 286 286 287 286 284 284 286 287 286 286 285 281
265 266 266 269 270 272 274 272 269 269 272 272 273 275 275 276 278 280 279 278 277 276 277 278 280 282 283 287 288 287 285 285 283 281 285 284 282 281 280 281 282 283 283 282 280
266 268 268 267 271 271 272 271 273 271 275 274 274 276 277 275 277 276 279 280 281 280 278 278 281 285 287 288 286 283 282 281 277 277 281 280 279 278 279 279 280 281 281 281 281
263 268 265 270 270 272 271 272 273 270 271 272 274 276 275 277 279 281 281 280 282 280 280 284 284 283 285 284 281 281 281 276 275 277 278 276 277 279 280 283 283 284 285 285 285
260 263 267 270 271 272 270 268 269 266 266 271 274 271 273 278 284 283 280 280 282 284 284 285 283 280 279 278 279 280 276 273 273 273 274 277 281 284 286 287 288 290 291 292 292
259 263 263 267 268 270 269 267 267 265 266 269 271 269 273 282 284 282 279 281 284 285 281 282 279 279 278 275 275 277 275 274 276 277 280 283 286 290 290 291 292 292 291 291 290
258 262 263 264 268 269 268 264 266 264 265 267 267 269 276 279 283 281 279 278 281 281 281 283 281 280 280 275 275 276 275 276 278 281 282 284 286 289 291 292 292 291 291 291 291
259 261 265 265 262 266 267 267 265 263 259 263 267 271 273 276 279 277 276 276 276 278 281 280 280 279 277 276 277 278 279 280 280 281 282 285 285 289 292 292 292 292 292 292 292
259 261 262 260 261 260 262 263 264 263 262 266 265 266 270 274 276 277 277 278 275 277 280 281 280 281 281 281 280 281 282 282 284 284 285 287 289 292 293 293 295 296 296 294 294
257 259 259 258 258 257 262 259 260 263 264 264 264 263 264 269 271 277 278 278 279 279 281 281 282 281 282 282 283 283 284 285 287 287 289 289 293 296 296 296 296 297 297 296 296
257 257 258 256 259 257 258 261 257 259 261 263 263 263 262 264 269 272 274 277 277 277 279 282 282 282 283 285 287 286 286 287 288 288 289 291 295 297 298 297 296 295 296 296 296
255 256 255 256 254 256 255 259 257 257 259 262 262 262 264 265 268 270 273 270 273 274 274 278 281 281 282 284 286 287 288 289 289 289 289 291 292 296 297 297 296 295 295 297 296
254 254 254 255 255 256 257 256 257 257 257 260 262 263 265 267 267 268 273 268 271 273 274 276 278 280 281 282 283 285 286 288 289 289 289 291 295 297 299 298 295 297 297 298 297
252 252 253 254 254 253 255 256 257 255 257 259 261 263 265 265 266 268 271 267 269 270 272 275 276 278 279 281 281 283 285 285 287 288 290 295 297 301 298 298 295 297 296 296 294
249 251 250 251 252 253 256 258 257 256 257 259 260 262 263 263 265 268 269 266 268 268 271 275 275 276 277 278 281 282 286 287 288 290 292 295 303 301 299 295 297 298 296 294 294
251 250 248 247 249 253 254 257 256 255 255 257 259 260 261 262 264 266 268 267 267 269 272 274 275 276 278 281 282 286 287 288 290 291 293 298 302 301 299 299 299 298 297 296 293
250 251 250 249 248 248 252 254 255 255 255 256 257 258 260 261 263 265 267 267 269 270 272 273 277 279 282 283 283 285 288 289 291 294 295 299 297 299 297 298 299 297 295 294 295
248 249 249 249 250 249 247 252 254 254 255 257 257 257 258 260 262 264 264 265 266 269 272 275 277 279 281 282 284 285 287 288 291 293 293 295 296 293 295 296 295 294 294 294 296
244 247 244 246 248 247 248 247 248 251 254 256 256 257 258 259 260 262 262 264 267 270 272 275 276 278 281 282 282 286 288 291 292 292 293 293 293 291 291 291 290 293 293 296 299
238 242 245 244 246 246 244 246 244 245 248 253 255 256 258 259 260 263 266 266 266 269 273 274 275 276 278 280 281 284 287 292 289 289 289 290 287 286 286 287 290 291 293 296 298
Height
10774 10776 10777 10780 10781 10782 10785 10786 10786 10786 10785 10786 10786 10786 10787 10789 10788 10790 10790 10789 10788 10788 10787 10787 10786 10785 10785 10783 10781 10780 10780 10782 10781 10783 10783 10780 10778 10778 10778 10777 10775 10771 10770 10769 10765
10760 10761 10763 10764 10766 10768 10771 10772 10772 10772 10772 10772 10774 10775 10775 10776 10777 10778 10779 10778 10778 10777 10776 10776 10775 10774 10773 10771 10769 10769 10769 10769 10771 10771 10771 10769 10765 10764 10766 10767 10766 10765 10763 10757 10754
10745 10746 10747 10748 10751 10754 10756 10758 10758 10758 10759 10758 10760 10762 10763 10763 10764 10766 10766 10766 10765 10765 10765 10764 10764 10763 10760 10758 10757 10756 10756 10756 10758 10758 10757 10755 10754 10754 10754 10756 10759 10751 10748 10744 10742
10728 10730 10731 10732 10735 10738 10741 10743 10743 10744 10744 10745 10747 10747 10749 10748 10750 10753 10752 10751 10753 10753 10752 10751 10752 10751 10748 10746 10744 10743 10743 10743 10746 10745 10742 10741 10742 10739 10743 10747 10740 10739 10736 10735 10732
10712 10713 10716 10716 10719 10722 10726 10728 10729 10729 10729 10731 10732 10732 10735 10733 10738 10740 10740 10738 10739 10738 10737 10739 10740 10739 10737 10734 10730 10730 10731 10731 10733 10731 10729 10727 10729 10727 10729 10729 10727 10725 10723 10721 10719
10695 10697 10700 10701 10702 10706 10710 10714 10715 10714 10715 10717 10718 10720 10719 10721 10725 10726 10726 10725 10726 10725 10725 10725 10726 10726 10725 10723 10720 10718 10718 10720 10720 10718 10716 10714 10716 10715 10713 10714 10712 10709 10707 10706 10705
10678 10680 10683 10685 10687 10690 10694 10699 10701 10701 10702 10703 10705 10706 10705 10709 10710 10712 10713 10713 10713 10711 10711 10711 10713 10712 10710 10711 10710 10707 10704 10707 10707 10707 10705 10700 10702 10699 10699 10699 10697 10694 10692 10690 10688
10662 10664 10666 10668 10671 10674 10679 10684 10687 10687 10686 10689 10691 10693 10692 10695 10697 10700 10699 10699 10701 10699 10698 10698 10697 10697 10697 10699 10699 10694 10691 10692 10693 10692 10692 10688 10690 10686 10684 10682 10680 10678 10675 10673 10670
10644 10646 10650 10651 10654 10658 10663 10668 10672 10675 10673 10677 10678 10680 10680 10681 10682 10686 10686 10686 10687 10688 10686 10685 10684 10683 10683 10687 10684 10681 10680 10675 10676 10676 10679 10677 10674 10674 10673 10670 10667 10663 10661 10658 10656
10627 10627 10632 10634 10637 10641 10646 10651 10656 10660 10659 10659 10664 10665 10666 10668 10669 10671 10671 10672 10671 10672 10674 10674 10670 10667 10670 10671 10669 10667 10666 10665 10658 10661 10664 10662 10660 10661 10659 10656 10652 10648 10645 10643 10640
10607 10609 10612 10616 10620 10624 10630 10635 10640 10644 10643 10644 10649 10652 10650 10653 10656 10658 10656 10655 10656 10657 10659 10658 10655 10651 10657 10655 10654 10652 10652 10651 10648 10646 10650 10646 10647 10645 10643 10638 10632 10628 10625 10622 10619
10585 10592 10591 10597 10600 10607 10612 10615 10621 10625 10631 10630 10634 10635 10634 10639 10644 10640 10640 10640 10638 10640 10641 10645 10642 10637 10639 10641 10639 10639 10638 10634 10635 10633 10635 10633 10632 10629 10625 10620 10615 10610 10605 10600 10596
10563 10569 10574 10577 10583 10588 10590 10593 10598 10605 10616 10623 10615 10624 10620 10625 10628 10623 10624 10625 10625 10625 10624 10631 10628 10624 10624 10625 10624 10626 10623 10621 10621 10617 10617 10620 10621 10614 10606 10600 10596 10589 10583 10578 10575
10539 10545 10551 10558 10567 10566 10566 10569 10580 10589 10597 10613 10602 10611 10606 10609 10616 10601 10611 10610 10613 10608 10608 10615 10612 10609 10605 10606 10607 10610 10605 10603 10602 10601 10601 10600 10605 10599 10591 10582 10573 10566 10561 10556 10551
10515 10521 10525 10539 10549 10543 10541 10549 10558 10564 10578 10591 10597 10595 10593 10589 10600 10591 10588 10597 10599 10591 10591 10595 10596 10592 10587 10588 10589 10591 10587 10585 10584 10583 10584 10583 10577 10589 10577 10566 10553 10544 10537 10530 10524
10489 10495 10505 10515 10523 10520 10521 10526 10535 10538 10571 10575 10581 10580 10574 10573 10577 10578 10574 10577 10578 10580 10577 10573 10576 10573 10569 10570 10568 10567 10566 10564 10564 10562 10568 10560 10555 10577 10555 10542 10531 10520 10511 10501 10495
10460 10470 10480 10490 10494 10493 10499 10502 10509 10530 10550 10556 10559 10560 10557 10558 10557 10557 10558 10558 10560 10558 10559 10554 10556 10555 10551 10550 10548 10548 10545 10543 10545 10542 10544 10541 10538 10544 10533 10521 10509 10496 10484 10474 10469
10428 10440 10452 10461 10466 10470 10470 10475 10489 10524 10525 10531 10538 10537 10538 10538 10540 10542 10544 10544 10541 10540 10537 10538 10537 10535 10533 10531 10527 10527 10525 10519 10518 10521 10521 10520 10520 10518 10509 10495 10483 10469 10459 10452 10444
10396 10410 10424 10433 10437 10442 10439 10443 10480 10503 10503 10504 10512 10515 10517 10517 10520 10523 10526 10528 10524 10522 10517 10519 10520 10517 10515 10512 10508 10506 10503 10499 10492 10495 10495 10501 10494 10494 10480 10469 10453 10442 10433 10426 10419
10366 10380 10396 10402 10405 10409 10407 10423 10462 10478 10479 10479 10486 10489 10495 10499 10501 10503 10506 10510 10503 10501 10497 10502 10499 10500 10498 10495 10491 10486 10485 10479 10471 10467 10466 10476 10470 10464 10456 10441 10427 10417 10411 10404 10394
10330 10345 10369 10373 10374 10375 10379 10412 10435 10449 10450 10458 10460 10463 10472 10476 10477 10483 10485 10484 10485 10480 10477 10479 10479 10483 10481 10481 10473 10469 10468 10460 10452 10447 10436 10437 10453 10438 10423 10411 10401 10399 10391 10380 10371
10293 10313 10344 10339 10339 10346 10358 10392 10406 10420 10423 10431 10438 10439 10445 10451 10455 10458 10464 10462 10463 10458 10458 10453 10455 10463 10460 10462 10457 10448 10449 10441 10430 10430 10422 10402 10429 10409 10396 10381 10379 10376 10366 10358 10351
10252 10276 10295 10305 10300 10326 10345 10360 10373 10390 10400 10404 10412 10417 10421 10425 10431 10436 10441 10438 10437 10435 10436 10429 10435 10439 10443 10440 10436 10427 10426 10417 10409 10403 10401 10384 10394 10380 10363 10357 10358 10351 10342 10337 10331
10215 10231 10253 10263 10281 10310 10322 10334 10343 10357 10369 10375 10386 10392 10397 10402 10407 10412 10414 10412 10411 10409 10408 10411 10418 10420 10423 10416 10412 10410 10406 10394 10384 10381 10368 10382 10358 10360 10335 10339 10335 10332 10324 10319 10315
10183 10194 10220 10229 10256 10294 10304 10307 10310 10327 10340 10347 10358 10368 10372 10377 10378 10382 10383 10382 10384 10388 10392 10393 10396 10398 10397 10393 10390 10387 10385 10372 10366 10362 10347 10356 10348 10328 10326 10322 10316 10313 10309 10304 10301
10156 10165 10189 10211 10224 10239 10264 10287 10298 10299 10306 10319 10329 10336 10342 10347 10348 10350 10353 10359 10368 10373 10376 10375 10376 10376 10375 10369 10366 10369 10363 10348 10344 10342 10331 10328 10332 10309 10310 10308 10303 10299 10295 10292 10288
10137 10146 10159 10188 10195 10202 10235 10263 10272 10274 10284 10292 10301 10308 10314 10317 10318 10322 10330 10338 10345 10356 10357 10356 10350 10351 10354 10347 10342 10348 10339 10330 10326 10316 10311 10312 10303 10300 10296 10294 10291 10287 10284 10282 10279